Location: Alpha Ridge Park
(39.3209°N, 76.9128°W)
Time: 13:01:10
(UTC-04:00)

S-56A Canister/Altair - Pass Details

Date: 19 May 2019
Orbit: 633 x 2499 km, 38.9° (Epoch: 19 June)

Event Time Altitude Azimuth Distance (km) Brightness Sun altitude
Rises 02:14:57 0° 210° (SSW) 3,429 - -28.7°
Reaches altitude 10° 02:17:25 10° 199° (SSW) 2,683 - -28.5°
Maximum altitude 02:23:03 31° 139° (SE) 1,984 - -28.1°
Exits shadow 02:23:16 31° 136° (SE) 2,000 9.4 -28.1°
Drops below altitude 10° 02:30:57 10° 82° (E) 3,830 11.4 -27.6°
Sets 02:35:12 0° 74° (ENE) 5,152 12.3 -27.2°
